Weather in Charleston

United States     32°51′05″N   79°58′15″W
В апреле 2022 года жителям России запретили посещать сайт meteo.paraplan.net по решению Генеральной прокуратуры. Аудитория сайта уменьшилась в 10 раз. Владельцы сайта не видят смысла в поддержке погодного сервера в таких условиях. Сайт будет закрыт в октябре.
temp.,
°C
wind,
m/s
gust,
m/s
humid.,
%
clouds,
%
prec.,
mm/h
press.,
hPa
HPBL,
m
4 october, tue
tue423:00+15nne310760 0.0 1019558
02:00+14n49790 0.0 1018431
05:00+12n410740 0.0 1018443
08:00+11n411720 0.0 1019484
11:00+18n58500 0.0 1019807
14:00+22n46360 0.0 10171261
17:00+22nnw34320 0.0 10161349
20:00+17nnw11510 0.0 101738
5 october, wed
wed523:00+16ssw22560 0.0 101650
02:00+15nw23621 0.0 101768
05:00+13nw24670 0.0 101783
08:00+13nw23696 0.0 1017106
11:00+21nnw23405 0.0 1018711
14:00+24nw35255 0.0 10161349
17:00+24nnw343597 0.0 10161269
20:00+19n115035 0.0 101731
6 october, thu
thu623:00+17s11550 0.0 101820
02:00+16wsw11625 0.0 101819
05:00+15wnw126884 0.0 101823
08:00+16nw12623 0.0 101933
11:00+24wnw11370 0.0 1020575
14:00+26s33340 0.0 10181531
17:00+24s45490 0.0 1017538
20:00+19s24770 0.0 101898
7 october, fri
fri723:00+19ssw22790 0.0 101934
02:00+19ssw23840 0.0 101949
05:00+18sw23910 0.0 101948
08:00+18wsw23900 0.0 102078
11:00+25sw34530 0.0 1020737
14:00+28ssw44404 0.0 10181500
17:00+26ssw4549100 0.0 1017486
20:00+21s2477100 0.0 1018100
8 october, sat
sat823:00+20s3782100 0.0 1018150
02:00+20wsw278721 0.0 1019150
05:00+19wsw278610 0.0 1019145
08:00+18nnw24734 0.0 1020136
11:00+23ne445634 0.0 1022696
14:00+25e445294 0.0 10201069
17:00+22e566889 0.0 1020679
20:00+20ene4781100 0.0 1021369